DW9996 Weather Reports


Display with metric or nautical units.
time (UTC)temp
F
wind
direction
speed
MPH
gust
MPH
rain 1hr
in
rain 24hr
in
rain mn
in
humidity
%
barometer
mb
20260906020052 62 338 9.0 16.0 0.00 0.00 0.00 65 1014.2
20260906014602 63 355 8.0 17.0 0.00 0.00 0.00 64 1014.3
20260906013052 64 343 9.0 17.0 0.00 0.00 0.00 62 1014.2
20260906011551 65 16 11.0 18.0 0.00 0.00 0.00 60 1014.2
20260906010051 66 355 10.0 20.0 0.00 0.00 0.00 58 1014.0
20260906004550 68 315 10.0 19.0 0.00 0.00 0.00 54 1014.1
20260906003108 70 346 11.0 21.0 0.00 0.00 0.00 49 1013.9
20260906001550 73 327 7.0 14.0 0.00 0.00 0.00 40 1014.0
20260906000053 73 360 9.0 16.0 0.00 0.00 0.00 38 1014.1
20260905234548 74 360 6.0 14.0 0.00 0.00 0.00 39 1014.1
20260905233048 74 25 6.0 13.0 0.00 0.00 0.00 38 1014.1
20260905231547 74 26 6.0 12.0 0.00 0.00 0.00 37 1013.9
20260905230046 74 342 8.0 15.0 0.00 0.00 0.00 36 1013.9
20260905224545 75 63 5.0 10.0 0.00 0.00 0.00 36 1014.0
20260905223044 75 50 4.0 16.0 0.00 0.00 0.00 36 1014.0
20260905221545 74 9 3.0 12.0 0.00 0.00 0.00 36 1014.0
20260905220045 74 28 6.0 11.0 0.00 0.00 0.00 36 1014.0
20260905214542 74 11 7.0 14.0 0.00 0.00 0.00 36 1014.4
20260905213042 74 360 3.0 11.0 0.00 0.00 0.00 38 1014.2
20260905211542 74 348 4.0 13.0 0.00 0.00 0.00 38 1014.3
20260905210037 73 35 2.0 9.0 0.00 0.00 0.00 39 1014.4
20260905204535 73 301 1.0 8.0 0.00 0.00 0.00 39 1014.3
20260905203035 73 330 5.0 11.0 0.00 0.00 0.00 39 1014.4
20260905201537 73 336 5.0 10.0 0.00 0.00 0.00 39 1014.6
20260905200033 72 328 6.0 11.0 0.00 0.00 0.00 41 1014.6
20260905194529 72 321 2.0 11.0 0.00 0.00 0.00 43 1014.7
20260905193028 71 25 6.0 10.0 0.00 0.00 0.00 43 1014.8
20260905191528 71 317 4.0 10.0 0.00 0.00 0.00 43 1014.9
20260905190032 71 360 3.0 10.0 0.00 0.00 0.00 47 1015.2
20260905184523 70 346 2.0 6.0 0.00 0.00 0.00 48 1015.3
20260905183024 70 336 4.0 10.0 0.00 0.00 0.00 47 1015.5
20260905181531 70 342 2.0 10.0 0.00 0.00 0.00 47 1015.6
20260905180019 69 5 4.0 10.0 0.00 0.00 0.00 48 1015.6
20260905174516 68 344 3.0 9.0 0.00 0.00 0.00 51 1015.7
20260905173018 67 322 5.0 10.0 0.00 0.00 0.00 51 1015.7
20260905171523 67 315 3.0 9.0 0.00 0.00 0.00 57 1015.6
20260905170010 66 355 4.0 9.0 0.00 0.00 0.00 59 1015.7
20260905164508 65 9 4.0 10.0 0.00 0.00 0.00 60 1015.4
20260905163006 65 5 5.0 10.0 0.00 0.00 0.00 62 1015.5
20260905161503 64 336 4.0 9.0 0.00 0.00 0.00 62 1015.7
20260905160007 63 336 5.0 12.0 0.00 0.00 0.00 62 1015.5
20260905154603 63 327 5.0 13.0 0.00 0.00 0.00 65 1015.5
20260905153055 60 336 4.0 8.0 0.00 0.00 0.00 72 1015.7
20260905151555 60 281 5.0 10.0 0.00 0.00 0.00 72 1015.4
20260905150057 59 302 3.0 9.0 0.00 0.00 0.00 73 1015.6
20260905144554 60 318 3.0 8.0 0.00 0.00 0.00 72 1015.5
20260905143053 58 309 3.0 7.0 0.00 0.00 0.00 74 1015.3
20260905141544 55 293 2.0 5.0 0.00 0.00 0.00 71 1015.4
20260905140045 54 292 2.0 4.0 0.00 0.00 0.00 72 1015.4
20260905134544 54 285 2.0 6.0 0.00 0.00 0.00 73 1015.6
20260905133040 53 253 2.0 6.0 0.00 0.00 0.00 73 1016.1
20260905131548 53 277 1.0 5.0 0.00 0.00 0.00 73 1014.3
20260905130038 53 333 2.0 5.0 0.00 0.00 0.00 73 1013.7
20260905124541 53 315 2.0 4.0 0.00 0.00 0.00 74 1013.7
20260905123036 54 275 0.0 4.0 0.00 0.00 0.00 74 1014.6
20260905121533 53 269 2.0 6.0 0.00 0.00 0.00 74 1015.2
20260905120030 53 249 3.0 8.0 0.00 0.00 0.00 74 1014.7
20260905114537 52 292 2.0 5.0 0.00 0.00 0.00 74 1013.6
20260905113033 51 292 1.0 5.0 0.00 0.00 0.00 75 1013.9
20260905111525 51 277 3.0 7.0 0.00 0.00 0.00 74 1013.7
20260905110022 51 273 1.0 5.0 0.00 0.00 0.00 74 1013.5
20260905104522 49 315 2.0 4.0 0.00 0.00 0.00 75 1013.0
20260905103024 49 314 2.0 5.0 0.00 0.00 0.00 75 1012.9
20260905101525 48 311 1.0 4.0 0.00 0.00 0.00 75 1012.8
20260905100021 48 312 2.0 3.0 0.00 0.00 0.00 74 1012.7
20260905094513 49 301 2.0 4.0 0.00 0.00 0.00 74 1012.7
20260905093012 49 261 1.0 3.0 0.00 0.00 0.00 72 1012.7
20260905091510 51 298 1.0 3.0 0.00 0.00 0.00 71 1012.7
20260905090013 51 326 0.0 2.0 0.00 0.00 0.00 72 1012.5
20260905084507 49 313 2.0 5.0 0.00 0.00 0.00 74 1012.2
20260905083004 49 297 1.0 2.0 0.00 0.00 0.00 70 1012.3
20260905081500 51 292 0.0 4.0 0.00 0.00 0.00 69 1012.5
20260905080104 51 297 1.0 6.0 0.00 0.00 0.00 70 1012.9
20260905074559 51 295 1.0 3.0 0.00 0.00 0.00 70 1012.8
20260905073057 51 288 2.0 4.0 0.00 0.00 0.00 68 1012.6
20260905071557 52 265 1.0 3.0 0.00 0.00 0.00 68 1012.7
20260905070058 51 283 2.0 4.0 0.00 0.00 0.00 69 1012.2
20260905064552 51 298 2.0 3.0 0.00 0.00 0.00 68 1012.3
20260905063100 52 284 2.0 4.0 0.00 0.00 0.00 67 1012.4
20260905061605 52 281 1.0 6.0 0.00 0.00 0.00 64 1012.3
20260905060044 52 277 1.0 2.0 0.00 0.00 0.00 64 1011.9
20260905054543 51 313 1.0 4.0 0.00 0.00 0.00 63 1011.3
20260905053047 51 291 1.0 4.0 0.00 0.00 0.00 61 1011.5
20260905051539 53 281 1.0 4.0 0.00 0.00 0.00 59 1011.8
20260905050039 53 292 1.0 3.0 0.00 0.00 0.00 57 1011.6
20260905044540 54 316 0.0 3.0 0.00 0.00 0.00 55 1011.6
20260905043038 56 311 0.0 2.0 0.00 0.00 0.00 53 1011.9
20260905041537 58 71 0.0 1.0 0.00 0.00 0.00 50 1011.9
20260905040034 59 71 0.0 2.0 0.00 0.00 0.00 49 1011.1
20260905034533 59 71 2.0 3.0 0.00 0.00 0.00 48 1011.1
20260905033035 61 319 0.0 1.0 0.00 0.00 0.00 46 1011.0
20260905031532 63 319 1.0 4.0 0.00 0.00 0.00 43 1010.6
20260905030036 63 31 0.0 3.0 0.00 0.00 0.00 44 1010.5
20260905024532 64 355 1.0 2.0 0.00 0.00 0.00 42 1010.1
20260905023027 65 5 0.0 2.0 0.00 0.00 0.00 41 1010.2
20260905021524 66 5 1.0 6.0 0.00 0.00 0.00 39 1009.6